Hourly Weather Roundup
Issued by NWS Central Illinois

Home | Current Version | Previous Version | Text Only | Print | Product List | Glossary On
Versions: 1 2 3 4 5 6 7 8 9 10 11 12 13 14 15 16 17 18 19 20 21 22 23 24 25 26 27 28 29 30 31 32 33 34 35 36 37 38 39 40 41 42 43 44 45 46 47 48 49 50
000
NZUS43 KILX 300810
HWRILX

AREA WEATHER ROUNDUP
NATIONAL WEATHER SERVICE, LINCOLN IL
300 AM CDT TUE AUG 30 2016


CITY           SKY/WX    TMP DP  RH WIND       PRES   REMARKS
BLOOMINGTON    PTCLDY    71  70  96 CALM      30.17F
CHAMPAIGN      CLEAR     71  70  96 E3        30.16F FOG
DANVILLE       CLEAR     70  69  99 CALM      30.15S FOG
DECATUR        CLEAR     72  70  93 CALM      30.15F
EFFINGHAM      CLEAR     70  70 100 CALM      30.16S FOG
FLORA          CLEAR     72  71  95 CALM      30.13F
GALESBURG      CLOUDY    73  71  93 NE5       30.15S THUNDER
JACKSONVILLE   CLEAR     72  70  96 CALM      30.13F FOG
LACON          CLEAR     69  68  97 CALM      30.13F FOG
LAWRENCEVILLE  CLEAR     73  32  22 NE3       30.13F
LITCHFIELD     CLEAR     71  66  82 CALM      30.15S
$$


CITY           SKY/WX    TMP DP  RH WIND       PRES   REMARKS
LINCOLN        CLEAR     71  71 100 CALM      30.14F FOG
MACOMB         FOG       69  69  99 N3        30.16S VSB 3/4
MATTOON        CLEAR     72  70  93 CALM      30.14F FOG
MT CARMEL AP   CLEAR     70  69  96 CALM      30.13S FOG
OLNEY-NOBLE AP CLEAR     70  70 100 CALM      30.13F FOG
PARIS          CLEAR     69  69 100 CALM      30.16F FOG
PEORIA         PTCLDY    74  74 100 E5        30.14F
PONTIAC          N/A     72  72 100 CALM      30.16F FOG
RANTOUL        PTCLDY    74  73  94 CALM      30.16F
ROBINSON       FOG       67  67 100 CALM      30.14F VSB 1/4
SPRINGFIELD    CLEAR     72  70  93 CALM      30.14F FOG
TAYLORVILLE    CLEAR     70  70 100 CALM      30.14F
$$

...REGIONAL REPORTS...


CITY           SKY/WX    TMP DP  RH WIND       PRES   REMARKS
CHICAGO O`HARE MOCLDY    71  70  96 CALM      30.15F FOG
KANKAKEE       FOG       71  70  98 CALM      30.17S VSB 1/4
MOLINE         LGT RAIN  73  70  90 NE5       30.14F
MOUNT STERLING CLEAR     71  70  96 CALM      30.13F
MOUNT VERNON   CLEAR     70  64  83 CALM      30.13F
PITTSFIELD     CLEAR     71  71  99 CALM      30.14F FOG
QUINCY         PTCLDY    74  71  91 CALM      30.13F
ROCKFORD       TSTM      71  70  96 W3        30.19S FOG
$$


CITY           SKY/WX    TMP DP  RH WIND       PRES   REMARKS
BURLINGTON     PTCLDY    70  70 100 N6        30.15S
CEDAR RAPIDS   CLOUDY    70  70 100 CALM      30.18R FOG
DES MOINES     CLOUDY    73  70  90 E5        30.16S
KIRKSVILLE     CLEAR     70  68  93 N3        30.16F FOG
OTTUMWA        CLOUDY    69  67  93 NE7       30.17S
ST LOUIS       CLEAR     80  72  76 CALM      30.14S HX  84
$$


CITY           SKY/WX    TMP DP  RH WIND       PRES   REMARKS
TERRE HAUTE    CLEAR     70  68  93 CALM      30.15F FOG
EVANSVILLE     CLEAR     74  70  87 CALM      30.12S
INDIANAPOLIS   CLEAR     75  70  84 NE5       30.16S
LAFAYETTE      CLEAR     71  71 100 CALM      30.16S FOG
MADISON        CLOUDY    72  68  87 SW3       30.18S
MILWAUKEE      CLOUDY    75  67  76 CALM      30.16F
$$






USA.gov is the U.S. government's official web portal to all federal, state and local government web resources and services.